| time (UTC) | temp F | wind direction | speed MPH | gust MPH | rain 1hr in | rain 24hr in | rain mn in | humidity % | barometer mb |
| 20260510101518 | 60 | 0.0 | 0.0 | 0.00 | 0.00 | 0.00 | 45 | 1012.4 | |
| 20260510100019 | 61 | 0.0 | 0.0 | 0.00 | 0.00 | 0.00 | 45 | 1012.5 | |
| 20260510094518 | 61 | 0.0 | 0.0 | 0.00 | 0.00 | 0.00 | 46 | 1012.7 | |
| 20260510093017 | 64 | 0.0 | 0.0 | 0.00 | 0.00 | 0.00 | 46 | 1012.9 | |
| 20260510091518 | 65 | 0.0 | 0.0 | 0.00 | 0.00 | 0.00 | 50 | 1013.0 | |
| 20260510090019 | 66 | 0.0 | 0.0 | 0.00 | 0.00 | 0.00 | 51 | 1013.1 | |
| 20260510083018 | 62 | 0.0 | 0.0 | 0.00 | 0.00 | 0.00 | 63 | 1013.5 | |
| 20260510081517 | 57 | 0.0 | 0.0 | 0.00 | 0.00 | 0.00 | 63 | 1013.6 | |
| 20260510080017 | 56 | 0.0 | 0.0 | 0.00 | 0.00 | 0.00 | 66 | 1013.8 | |
| 20260510074518 | 55 | 0.0 | 0.0 | 0.00 | 0.00 | 0.00 | 70 | 1013.9 | |
| 20260510073017 | 54 | 0.0 | 0.0 | 0.00 | 0.00 | 0.00 | 74 | 1014.1 | |
| 20260510071518 | 53 | 0.0 | 0.0 | 0.00 | 0.00 | 0.00 | 77 | 1014.4 | |
| 20260510070018 | 52 | 0.0 | 0.0 | 0.00 | 0.00 | 0.00 | 82 | 1014.6 | |
| 20260510064517 | 51 | 0.0 | 0.0 | 0.00 | 0.00 | 0.00 | 86 | 1014.9 | |
| 20260510063018 | 50 | 0.0 | 0.0 | 0.00 | 0.00 | 0.00 | 90 | 1015.1 | |
| 20260510061517 | 49 | 0.0 | 0.0 | 0.00 | 0.00 | 0.00 | 95 | 1015.2 | |
| 20260510060018 | 47 | 0.0 | 0.0 | 0.00 | 0.00 | 0.00 | 98 | 1015.4 | |
| 20260510054517 | 46 | 0.0 | 0.0 | 0.00 | 0.00 | 0.00 | 10 | 1015.5 | |
| 20260510053018 | 45 | 0.0 | 0.0 | 0.00 | 0.00 | 0.00 | 10 | 1015.8 | |
| 20260510051518 | 43 | 0.0 | 0.0 | 0.00 | 0.00 | 0.00 | 10 | 1015.8 | |
| 20260510050018 | 41 | 0.0 | 0.0 | 0.00 | 0.00 | 0.00 | 10 | 1016.0 | |
| 20260510044518 | 38 | 0.0 | 0.0 | 0.00 | 0.00 | 0.00 | 10 | 1016.1 | |
| 20260510043018 | 36 | 0.0 | 0.0 | 0.00 | 0.00 | 0.00 | 10 | 1016.2 | |
| 20260510041518 | 34 | 0.0 | 0.0 | 0.00 | 0.00 | 0.00 | 10 | 1016.2 | |
| 20260510031517 | 30 | 0.0 | 0.0 | 0.00 | 0.00 | 0.00 | 94 | 1016.6 | |
| 20260510030017 | 29 | 0.0 | 0.0 | 0.00 | 0.00 | 0.00 | 93 | 1016.7 | |
| 20260510024517 | 29 | 0.0 | 0.0 | 0.00 | 0.00 | 0.00 | 92 | 1016.9 | |
| 20260510023018 | 28 | 0.0 | 0.0 | 0.00 | 0.00 | 0.00 | 91 | 1017.0 | |
| 20260510021517 | 28 | 0.0 | 0.0 | 0.00 | 0.00 | 0.00 | 90 | 1017.1 | |
| 20260510014517 | 28 | 0.0 | 0.0 | 0.00 | 0.00 | 0.00 | 87 | 1017.4 | |
| 20260510013018 | 28 | 0.0 | 0.0 | 0.00 | 0.00 | 0.00 | 86 | 1017.5 | |
| 20260510011518 | 29 | 0.0 | 0.0 | 0.00 | 0.00 | 0.00 | 84 | 1017.6 | |
| 20260510010017 | 29 | 0.0 | 0.0 | 0.00 | 0.00 | 0.00 | 83 | 1017.8 | |
| 20260510004517 | 29 | 0.0 | 0.0 | 0.00 | 0.00 | 0.00 | 81 | 1017.9 | |
| 20260510003018 | 30 | 0.0 | 0.0 | 0.00 | 0.00 | 0.00 | 80 | 1017.9 | |
| 20260510000018 | 31 | 0.0 | 0.0 | 0.00 | 0.00 | 0.00 | 77 | 1018.2 | |
| 20260509233018 | 31 | 0.0 | 0.0 | 0.00 | 0.00 | 0.00 | 73 | 1018.6 | |
| 20260509231518 | 32 | 0.0 | 0.0 | 0.00 | 0.00 | 0.00 | 72 | 1018.7 | |
| 20260509230018 | 32 | 0.0 | 0.0 | 0.00 | 0.00 | 0.00 | 70 | 1018.8 | |
| 20260509224517 | 33 | 0.0 | 0.0 | 0.00 | 0.00 | 0.00 | 69 | 1019.0 | |
| 20260509223018 | 34 | 0.0 | 0.0 | 0.00 | 0.00 | 0.00 | 67 | 1019.1 | |
| 20260509213018 | 37 | 0.0 | 0.0 | 0.00 | 0.00 | 0.00 | 59 | 1019.4 | |
| 20260509211518 | 38 | 0.0 | 0.0 | 0.00 | 0.00 | 0.00 | 57 | 1019.5 | |
| 20260509210017 | 39 | 0.0 | 0.0 | 0.00 | 0.00 | 0.00 | 55 | 1019.4 | |
| 20260509204518 | 40 | 0.0 | 0.0 | 0.00 | 0.00 | 0.00 | 53 | 1019.5 | |
| 20260509200018 | 43 | 0.0 | 0.0 | 0.00 | 0.00 | 0.00 | 48 | 1019.8 | |
| 20260509194518 | 44 | 0.0 | 0.0 | 0.00 | 0.00 | 0.00 | 47 | 1019.8 | |
| 20260509193019 | 45 | 0.0 | 0.0 | 0.00 | 0.00 | 0.00 | 45 | 1019.8 | |
| 20260509191518 | 46 | 0.0 | 0.0 | 0.00 | 0.00 | 0.00 | 44 | 1019.9 | |
| 20260509190017 | 47 | 0.0 | 0.0 | 0.00 | 0.00 | 0.00 | 43 | 1019.8 | |
| 20260509184518 | 48 | 0.0 | 0.0 | 0.00 | 0.00 | 0.00 | 42 | 1019.9 | |
| 20260509183017 | 49 | 0.0 | 0.0 | 0.00 | 0.00 | 0.00 | 41 | 1020.0 | |
| 20260509181518 | 50 | 0.0 | 0.0 | 0.00 | 0.00 | 0.00 | 39 | 1020.2 | |
| 20260509174517 | 52 | 0.0 | 0.0 | 0.00 | 0.00 | 0.00 | 37 | 1020.3 | |
| 20260509173019 | 53 | 0.0 | 0.0 | 0.00 | 0.00 | 0.00 | 36 | 1020.4 | |
| 20260509171523 | 54 | 0.0 | 0.0 | 0.00 | 0.00 | 0.00 | 35 | 1020.5 | |
| 20260509164518 | 55 | 0.0 | 0.0 | 0.00 | 0.00 | 0.00 | 34 | 1020.7 | |
| 20260509161518 | 56 | 0.0 | 0.0 | 0.00 | 0.00 | 0.00 | 34 | 1020.9 | |
| 20260509160017 | 57 | 0.0 | 0.0 | 0.00 | 0.00 | 0.00 | 33 | 1021.0 | |
| 20260509154517 | 57 | 0.0 | 0.0 | 0.00 | 0.00 | 0.00 | 33 | 1021.2 | |
| 20260509153018 | 58 | 0.0 | 0.0 | 0.00 | 0.00 | 0.00 | 32 | 1021.3 | |
| 20260509151518 | 58 | 0.0 | 0.0 | 0.00 | 0.00 | 0.00 | 32 | 1021.5 | |
| 20260509144518 | 60 | 0.0 | 0.0 | 0.00 | 0.00 | 0.00 | 31 | 1021.9 | |
| 20260509143017 | 60 | 0.0 | 0.0 | 0.00 | 0.00 | 0.00 | 31 | 1022.1 | |
| 20260509141518 | 60 | 0.0 | 0.0 | 0.00 | 0.00 | 0.00 | 31 | 1022.2 | |
| 20260509140017 | 59 | 0.0 | 0.0 | 0.00 | 0.00 | 0.00 | 31 | 1022.4 | |
| 20260509134517 | 59 | 0.0 | 0.0 | 0.00 | 0.00 | 0.00 | 31 | 1022.5 | |
| 20260509133018 | 59 | 0.0 | 0.0 | 0.00 | 0.00 | 0.00 | 31 | 1022.7 | |
| 20260509131518 | 61 | 0.0 | 0.0 | 0.00 | 0.00 | 0.00 | 32 | 1022.9 | |
| 20260509130018 | 60 | 0.0 | 0.0 | 0.00 | 0.00 | 0.00 | 32 | 1023.0 | |
| 20260509123018 | 61 | 0.0 | 0.0 | 0.00 | 0.00 | 0.00 | 32 | 1023.3 | |
| 20260509121518 | 60 | 0.0 | 0.0 | 0.00 | 0.00 | 0.00 | 33 | 1023.3 | |
| 20260509120018 | 60 | 0.0 | 0.0 | 0.00 | 0.00 | 0.00 | 34 | 1023.5 | |
| 20260509114517 | 58 | 0.0 | 0.0 | 0.00 | 0.00 | 0.00 | 34 | 1023.6 | |
| 20260509113018 | 59 | 0.0 | 0.0 | 0.00 | 0.00 | 0.00 | 34 | 1023.7 | |
| 20260509110018 | 59 | 0.0 | 0.0 | 0.00 | 0.00 | 0.00 | 35 | 1023.9 | |
| 20260509104518 | 58 | 0.0 | 0.0 | 0.00 | 0.00 | 0.00 | 35 | 1024.0 | |
| 20260509103018 | 59 | 0.0 | 0.0 | 0.00 | 0.00 | 0.00 | 36 | 1024.1 |